Regional Weather Roundup
Issued by NWS

Home | Current Version | Previous Version | Text Only | Print | Product List | Glossary On
Versions: 1 2 3 4 5 6 7 8 9 10 11 12 13 14 15 16 17 18 19 20 21 22 23 24 25 26 27 28 29 30 31 32 33 34 35 36 37 38 39 40 41 42 43 44 45 46 47 48 49 50
000
ASUS43 KLMK 301010
RWRKY
KENTUCKY REGIONAL WEATHER ROUNDUP
NATIONAL WEATHER SERVICE LOUISVILLE KY
600 AM EDT TUE SEP 30 2014

NOTE "FAIR" INDICATES FEW OR NO CLOUDS BELOW 12,000 FEET
WITH NO SIGNIFICANT WEATHER AND/OR OBSTRUCTIONS TO VISIBILITY.

KYZ001>023-026-027-061>063-070>075-301100-
WESTERN AND SOUTH CENTRAL KENTUCKY

CITY           SKY/WX    TMP DP  RH WIND       PRES   REMARKS
PADUCAH        CLEAR     55  54  96 CALM      29.94S FOG
HENDERSON      NOT AVBL
OWENSBORO      CLEAR     57  55  93 CALM      29.94S
HOPKINSVILLE   CLEAR     57  57  99 SW3       29.94S
BOWLING GREEN  CLEAR     55  53  93 CALM      29.94S FOG
GLASGOW        FOG       53  53 100 CALM      29.94F VSB 1/2
$$

KYZ024-025-028>034-038-045-046-053-301100-
NORTH CENTRAL KENTUCKY

CITY           SKY/WX    TMP DP  RH WIND       PRES   REMARKS
LOUISVILLE/SDF CLEAR     59  55  87 CALM      29.93S
LOUISVILLE/LOU CLEAR     56  53  90 CALM      29.94S
FORT KNOX      CLEAR     52  51  97 CALM      29.93S
$$

KYZ035>037-039>044-047>052-055>060-089>105-301100-
NORTHEAST KENTUCKY

CITY           SKY/WX    TMP DP  RH WIND       PRES   REMARKS
LEXINGTON      CLEAR     55  50  83 S3        29.95R
COVINGTON      CLEAR     56  51  84 CALM      29.92S
FRANKFORT      CLEAR     51  49  92 CALM      29.93S
$$

KYZ054-064>069-076>088-106>120-301100-
SOUTHEAST KENTUCKY

CITY           SKY/WX    TMP DP  RH WIND       PRES   REMARKS
JACKSON        CLEAR     60  57  89 CALM      29.96R FOG
LONDON         FOG       57  56  96 CALM      29.97R VSB 1/4
SOMERSET       FOG       57  57 100 CALM      29.97R VSB 1/4
MIDDLESBORO    FOG       58  58 100 CALM      29.98S VSB 1/4
MONTICELLO     FOG       52  52 100 CALM      29.98R VSB 1/4
$$




USA.gov is the U.S. government's official web portal to all federal, state and local government web resources and services.